Regional Weather Roundup
Issued by NWS

Home | Current Version | Previous Version | Text Only | Print | Product List | Glossary On
Versions: 1 2 3 4 5 6 7 8 9 10 11 12 13 14 15 16 17 18 19 20 21 22 23 24 25 26 27 28 29 30 31 32 33 34 35 36 37 38 39 40 41 42 43 44 45 46 47 48 49 50
000
ASUS42 KTBW 302016
RWRFL
FLORIDA REGIONAL WEATHER ROUNDUP
NATIONAL WEATHER SERVICE TAMPA BAY RUSKIN FL
400 PM EDT TUE AUG 30 2016

NOTE: "FAIR" INDICATES FEW OR NO CLOUDS BELOW 12,000 FEET WITH NO
SIGNIFICANT WEATHER AND/OR OBSTRUCTIONS TO VISIBILITY.

FLZ001>010-012>015-112-114-115-302100-
PANHANDLE FLORIDA

CITY           SKY/WX    TMP DP  RH WIND       PRES   REMARKS
PENSACOLA      MOSUNNY   94  71  47 E8        29.91F HX 101
PENSACOLA NAS  MOSUNNY   88  75  65 SE14      29.91F HX  97
MILTON NAS     MOSUNNY   91  72  53 E10G18    29.92  HX  98
CRESTVIEW      MOSUNNY   92  68  45 NE9       29.94F HX  96
DUKE FIELD     MOSUNNY   90  69  49 NE12G17   29.91F
VALPARAISO     MOSUNNY   94  68  43 NE14      29.91F HX  98
MARY ESTHER    MOSUNNY   92  70  49 E13       29.89F HX  97
TRI COUNTY     FAIR      89  70  53 NE10      29.93
PANAMA CITY    FAIR      91  71  51 NE13      29.89F HX  97
TYNDALL AFB    MOSUNNY   91  73  56 NE10      29.89F HX  99
APALACHICOLA   SUNNY     90  77  65 E12G23    29.89F HX 103

STATION/POSITION SKY/WX   TEMP    WIND        PRES    WAVE   SWELL
                          AIR SEA DIR/SP/G            HT/PER HT/PER
                          (F)     (DEG/KT/KT) (MB)    (FT/S) (FT/S)
30.1N   87.6W              85 86   90/ 12/ 14 1012.7F   4/ 7   3/ 7
29.2N   88.2W              84 85   60/ 19/ 23 1011.5F
28.8N   86.0W              82 85   20/ 14/ 17 1011.3F   6/ 6   3/ 8
PANAMA CITY BEAC           89 86   60/  7/ 12 1013.5F
TOWER C                    83      70/ 17/ 19 1012.5F
28.5N   84.5W              83 85   90/ 14/ 17 1011.1F   4/ 5

$$
FLZ011-016>038-118-127-128-134-139-239-302100-
NORTH FLORIDA

CITY           SKY/WX    TMP DP  RH WIND       PRES   REMARKS
MARIANNA       MOSUNNY   89  71  55 E9        29.91F HX  95
TALLAHASSEE    PTSUNNY   92  70  48 E10       29.90F HX  97
PERRY          CLOUDY    88  73  60 E3        29.90F HX  95
CROSS CITY     CLOUDY    88  75  66 NE9       29.88F HX  97
LAKE CITY      PTSUNNY   82  73  74 NE10      29.91F
GAINESVILLE    LGT RAIN  79  75  87 NE10      29.91F
WILLISTON      FAIR      86  75  70 NE9       29.89F HX  95
PALATKA        FAIR      82  64  54 E12G20    29.91F
MAYPORT NAS    PTSUNNY   84  73  69 NE14      29.94F
JACKSONVILLE   PTSUNNY   85  74  69 E20       29.93F
FERNANDINA BEA FAIR      88  73  62 E14       29.94F HX  96
ST AUGUSTINE   LGT RAIN  81  75  83 E17       29.93F
PALM COAST     CLOUDY   N/A N/A N/A MISG      29.93

STATION/POSITION SKY/WX   TEMP    WIND        PRES    WAVE   SWELL
                          AIR SEA DIR/SP/G            HT/PER HT/PER
                          (F)     (DEG/KT/KT) (MB)    (FT/S) (FT/S)
SHELL POINT                90      70/  4/ 10 1011.6
KEATON BEACH               81      50/  7/  9 1012.1F
CEDAR KEY                  83     340/  4/  5 1012.0F
FERNANDINA                 85 86  110/  6/ 13 1015.0F
30.7N   81.3W                 85                N/A     5/ 5   2/13
MAYPORT                    80 85  120/  9/ 15 1015.2F
31.4N   80.9W              80 85  120/ 19/ 23 1014.7F   4/11   2/11
ST AUGUSTINE               78 83   90/ 12/ 14 1014.0F

$$
FLZ040-043>046-052-053-057-058-063-144-302100-
INTERIOR CENTRAL FLORIDA

CITY           SKY/WX    TMP DP  RH WIND       PRES   REMARKS
OCALA          MOSUNNY   88  73  62 N8        29.88F HX  96
THE VILLAGES     N/A     88  79  74 MISG      29.78F HX 102
LEESBURG       MOSUNNY   85  74  69 NE13      29.88F
SANFORD        PTSUNNY   86  76  71 E10       29.88F HX  96
ORLANDO EXEC   PTSUNNY   79  74  84 SE13      29.89R
ORLANDO INTL   TSTM      81  73  76 NE12      29.89S
KISSIMMEE      PTSUNNY   86  75  69 S8        29.89F HX  95
WINTER HAVEN   CLOUDY    80  74  81 CALM      29.90S
LAKELAND       TSTM      79  75  89 S15G28    29.90R
BARTOW         PTSUNNY   79  77  94 E5        29.88F
OKEECHOBEE     DRIZZLE   77  75  94 S9        29.93F

$$
FLZ041-047-054-059-064-141-147-302100-
EAST CENTRAL FLORIDA

CITY           SKY/WX    TMP DP  RH WIND       PRES   REMARKS
DAYTONA BEACH  PTSUNNY   83  74  74 E12       29.90F
DELAND         CLOUDY    82  75  78 E10       29.89F
JFK SPACE CTR  CLOUDY    83  74  74 S10       29.88F
TITUSVILLE     MOSUNNY   82  77  83 SE6       29.91S
CAPE CANAVERAL CLOUDY    83  76  80 S16       29.88F
PATRICK AFB    DRIZZLE   80  74  81 S17       29.91S
MELBOURNE      RAIN      75  75 100 S5        29.92R FOG
VERO BEACH     CLOUDY    79  73  82 S13       29.94S
FT PIERCE      LGT RAIN  76  74  93 S9        29.93F FOG
STUART         RAIN      77  75  94 S9        29.96F

STATION/POSITION SKY/WX   TEMP    WIND        PRES    WAVE   SWELL
                          AIR SEA DIR/SP/G            HT/PER HT/PER
                          (F)     (DEG/KT/KT) (MB)    (FT/S) (FT/S)
28.5N   80.2W              82 83  170/ 16/ 17 1012.9F
TRIDENT PIER               81 85  110/  6/ 10 1013.0F
28.4N   80.5W                 85                N/A     3/11   2/11
27.5N   80.2W                 83                N/A     4/13   2/13

$$
FLZ050-056-061-142-242-148-248-149-249-151-251-155-255-
160-260-302100-
WEST CENTRAL FLORIDA

CITY           SKY/WX    TMP DP  RH WIND       PRES   REMARKS
CRYSTAL RIVER  CLOUDY    82  77  83 E13       29.86F
INVERNESS      FAIR      90  73  58 E7        29.86F HX  98
BROOKSVILLE    CLOUDY    81  74  79 S14G23    29.87F
CLEARWATER AIR LGT RAIN  81  77  89 W3        29.86S
ST PETE CLEARW PTSUNNY   87  75  67 S13       29.86S HX  96
TAMPA INTL     TSTM      81  76  84 S10       29.87F FOG
TAMPA EXEC     PTSUNNY   86  73  66 S10       29.88R
PLANT CITY     CLOUDY    86  77  74 S15       29.90R HX  97
MACDILL AFB    CLOUDY    90  80  73 S14       29.86F THUNDER HX 106
PETER O KNIGHT LGT RAIN  82  79  89 NE6       29.87S
ST PETERSBURG  MOSUNNY   85  74  69 SW14      29.84F
SARASOTA       PTSUNNY   86  74  67 S14       29.86F
VENICE         PTSUNNY   81  75  83 S13       29.88F

STATION/POSITION SKY/WX   TEMP    WIND        PRES    WAVE   SWELL
                          AIR SEA DIR/SP/G            HT/PER HT/PER
                          (F)     (DEG/KT/KT) (MB)    (FT/S) (FT/S)
27.3N   84.2W                 86                N/A     4/ 5
CLEARWATER BEACH           83 86  200/ 16/ 17 1011.7F
MIDDLE TAMPA BAY                  200/  9/ 10 1012.2F
VENICE                     79 85  200/ 12/ 13 1011.3F

$$
FLZ066-069-070-075>078-162-262-165-265-302100-
SOUTHWEST FLORIDA AND KEYS

CITY           SKY/WX    TMP DP  RH WIND       PRES   REMARKS
PUNTA GORDA    CLOUDY    82  74  76 S12       29.90S
FT MYERS       CLOUDY    80  74  81 S14G23    29.88F
SOUTHWEST INTL LGT RAIN  79  74  84 S14       29.90S
NAPLES         RAIN      76  76 100 S6        29.89F FOG
MARATHON       CLOUDY    82  77  84 S12G21    29.90F
KEY WEST NAS   CLOUDY    82  73  74 S22G30    29.89F
KEY WEST INTL  CLOUDY    84  76  76 S17G26    29.88F

STATION/POSITION SKY/WX   TEMP    WIND        PRES    WAVE   SWELL
                          AIR SEA DIR/SP/G            HT/PER HT/PER
                          (F)     (DEG/KT/KT) (MB)    (FT/S) (FT/S)
NAPLES                        85              1012.0F
26.0N   85.6W              84 86  110/ 16/ 17 1008.6F   6/ 8   3/ 8
DRY TORTUGAS               82     180/ 29/ 32 1011.3F
SAND KEY                   82     200/ 24/ 30 1012.3F
LONG KEY                   81 83  210/ 16/ 20 1012.7F

$$
FLZ067-068-071>074-168-172>174-302100-
SOUTHEAST FLORIDA

CITY           SKY/WX    TMP DP  RH WIND       PRES   REMARKS
W PALM BEACH   TSTM      75  73  93 SW6       29.96F FOG
FT LAUDER-EXEC RAIN      75  72  90 S9G18     29.94S FOG
FT LAUDERDALE  HVY RAIN  73  72  96 S12       29.93F FOG
POMPANO BEACH  HVY RAIN  74  73  97 SW12      29.94F FOG
PEMBROKE PINES PTSUNNY   75  75 100 S12       29.94F
OPA LOCKA      LGT RAIN  75  75 100 S8        29.93F
MIAMI          LGT RAIN  75  74  96 S3        29.93F
WEST KENDALL   LGT RAIN  75  75 100 CALM      29.92F
HOMESTEAD      CLOUDY    77  75  94 W6        29.90F

STATION/POSITION SKY/WX   TEMP    WIND        PRES    WAVE   SWELL
                          AIR SEA DIR/SP/G            HT/PER HT/PER
                          (F)     (DEG/KT/KT) (MB)    (FT/S) (FT/S)
PORT EVERGLADES            84     160/ 10/ 14 1013.7F
VIRGINIA KEY               76 87  240/ 32/ 36 1013.9F
LAKE WORTH                 76 85  340/  5/  7 1014.5R
FOWEY ROCKS                77 84  230/  8/  8 1013.8F
SETTLEMENT POINT           81     120/  6/  8 1014.6F

$$




USA.gov is the U.S. government's official web portal to all federal, state and local government web resources and services.